Time,TemperatureF,DewpointF,PressureIn,WindDirection,WindDirectionDegrees,WindSpeedMPH,WindSpeedGustMPH,Humidity,HourlyPrecipIn,Conditions,Clouds,dailyrainin,SoftwareType,DateUTC
2013-07-21 00:08:00,67.9,66.0,29.94,SE,138,0.0,0.0,94,0.00,,,0.00,weatherlink.com 1.10,2013-07-21 04:08:00,
2013-07-21 00:23:00,67.9,67.0,29.94,SE,138,0.0,0.0,95,0.00,,,0.00,weatherlink.com 1.10,2013-07-21 04:23:00,
2013-07-21 00:38:00,67.8,66.0,29.93,SE,138,0.0,0.0,95,0.00,,,0.00,weatherlink.com 1.10,2013-07-21 04:38:00,
2013-07-21 00:53:00,67.7,66.0,29.93,SE,138,0.0,0.0,95,0.00,,,0.00,weatherlink.com 1.10,2013-07-21 04:53:00,
2013-07-21 01:08:00,67.7,66.0,29.93,SE,138,0.0,0.0,95,0.00,,,0.00,weatherlink.com 1.10,2013-07-21 05:08:00,
2013-07-21 01:24:00,67.7,66.0,29.93,SE,138,0.0,0.0,95,0.00,,,0.00,weatherlink.com 1.10,2013-07-21 05:24:00,
2013-07-21 01:39:00,67.8,67.0,29.93,SE,139,0.0,0.0,96,0.00,,,0.00,weatherlink.com 1.10,2013-07-21 05:39:00,
2013-07-21 01:54:00,67.9,67.0,29.93,SE,139,0.0,0.0,96,0.00,,,0.00,weatherlink.com 1.10,2013-07-21 05:54:00,
2013-07-21 02:09:00,67.9,67.0,29.93,SE,139,0.0,0.0,96,0.00,,,0.00,weatherlink.com 1.10,2013-07-21 06:09:00,
2013-07-21 02:24:00,67.9,67.0,29.93,SE,138,0.0,0.0,96,0.00,,,0.00,weatherlink.com 1.10,2013-07-21 06:24:00,
2013-07-21 02:39:00,67.8,67.0,29.92,SE,138,0.0,0.0,96,0.00,,,0.00,weatherlink.com 1.10,2013-07-21 06:39:00,
2013-07-21 02:54:00,67.5,66.0,29.92,SE,139,0.0,0.0,96,0.00,,,0.00,weatherlink.com 1.10,2013-07-21 06:54:00,
2013-07-21 03:09:00,67.7,67.0,29.92,SE,138,0.0,0.0,97,0.00,,,0.00,weatherlink.com 1.10,2013-07-21 07:09:00,
2013-07-21 03:24:00,67.7,67.0,29.92,SE,139,0.0,0.0,97,0.00,,,0.00,weatherlink.com 1.10,2013-07-21 07:24:00,
2013-07-21 03:39:00,67.5,67.0,29.91,SE,139,0.0,0.0,97,0.00,,,0.00,weatherlink.com 1.10,2013-07-21 07:39:00,
2013-07-21 03:54:00,67.3,67.0,29.91,SE,138,0.0,0.0,97,0.00,,,0.00,weatherlink.com 1.10,2013-07-21 07:54:00,
2013-07-21 04:12:00,67.1,66.0,29.91,SE,138,0.0,0.0,97,0.00,,,0.00,weatherlink.com 1.10,2013-07-21 08:12:00,
2013-07-21 04:24:00,67.0,67.0,29.91,SE,139,0.0,0.0,98,0.00,,,0.00,weatherlink.com 1.10,2013-07-21 08:24:00,
2013-07-21 04:39:00,67.1,67.0,29.91,SE,139,0.0,0.0,98,0.00,,,0.00,weatherlink.com 1.10,2013-07-21 08:39:00,
2013-07-21 04:54:00,67.3,67.0,29.91,SE,139,0.0,0.0,98,0.00,,,0.00,weatherlink.com 1.10,2013-07-21 08:54:00,
2013-07-21 05:09:00,67.1,67.0,29.91,SE,139,0.0,0.0,98,0.00,,,0.00,weatherlink.com 1.10,2013-07-21 09:09:00,
2013-07-21 05:24:00,66.8,66.0,29.90,SE,139,0.0,0.0,98,0.00,,,0.00,weatherlink.com 1.10,2013-07-21 09:24:00,
2013-07-21 05:39:00,66.5,66.0,29.90,SE,139,0.0,0.0,98,0.00,,,0.00,weatherlink.com 1.10,2013-07-21 09:39:00,
2013-07-21 05:54:00,66.2,66.0,29.91,SE,138,0.0,0.0,98,0.00,,,0.00,weatherlink.com 1.10,2013-07-21 09:54:00,
2013-07-21 06:09:00,66.3,66.0,29.92,SE,138,0.0,0.0,98,0.00,,,0.00,weatherlink.com 1.10,2013-07-21 10:09:00,
2013-07-21 06:24:00,66.3,66.0,29.92,SE,138,0.0,0.0,98,0.00,,,0.00,weatherlink.com 1.10,2013-07-21 10:24:00,
2013-07-21 06:39:00,66.3,66.0,29.93,SE,138,0.0,0.0,98,0.00,,,0.00,weatherlink.com 1.10,2013-07-21 10:39:00,
2013-07-21 06:54:00,66.3,66.0,29.92,SE,139,0.0,0.0,98,0.00,,,0.00,weatherlink.com 1.10,2013-07-21 10:54:00,
2013-07-21 07:09:00,66.5,66.0,29.93,SE,139,0.0,0.0,98,0.00,,,0.00,weatherlink.com 1.10,2013-07-21 11:09:00,
2013-07-21 07:24:00,66.9,67.0,29.93,SE,139,0.0,0.0,99,0.00,,,0.00,weatherlink.com 1.10,2013-07-21 11:24:00,
2013-07-21 07:39:00,67.2,67.0,29.93,SE,138,0.0,0.0,99,0.00,,,0.00,weatherlink.com 1.10,2013-07-21 11:39:00,
2013-07-21 07:54:00,67.7,67.0,29.93,SE,139,0.0,0.0,99,0.00,,,0.00,weatherlink.com 1.10,2013-07-21 11:54:00,
2013-07-21 08:09:00,68.2,68.0,29.95,SE,139,0.0,0.0,99,0.00,,,0.00,weatherlink.com 1.10,2013-07-21 12:09:00,
2013-07-21 08:24:00,68.6,68.0,29.95,SE,139,0.0,0.0,99,0.00,,,0.00,weatherlink.com 1.10,2013-07-21 12:24:00,
2013-07-21 08:39:00,68.9,68.0,29.95,SE,139,0.0,0.0,98,0.00,,,0.00,weatherlink.com 1.10,2013-07-21 12:39:00,
2013-07-21 08:54:00,69.2,69.0,29.95,SE,139,0.0,0.0,98,0.00,,,0.00,weatherlink.com 1.10,2013-07-21 12:54:00,
2013-07-21 09:09:00,69.5,69.0,29.95,SE,139,0.0,0.0,97,0.00,,,0.00,weatherlink.com 1.10,2013-07-21 13:09:00,
2013-07-21 09:24:00,70.6,70.0,29.95,SE,141,0.0,0.0,96,0.00,,,0.00,weatherlink.com 1.10,2013-07-21 13:24:00,
2013-07-21 09:39:00,71.5,69.0,29.96,SSE,160,0.0,0.0,93,0.00,,,0.00,weatherlink.com 1.10,2013-07-21 13:39:00,
2013-07-21 09:54:00,71.8,69.0,29.95,SE,134,0.0,0.0,92,0.00,,,0.00,weatherlink.com 1.10,2013-07-21 13:54:00,
2013-07-21 10:09:00,73.2,70.0,29.95,ESE,103,0.0,1.0,90,0.00,,,0.00,weatherlink.com 1.10,2013-07-21 14:09:00,
2013-07-21 10:24:00,75.0,71.0,29.96,SE,134,1.0,1.0,86,0.00,,,0.00,weatherlink.com 1.10,2013-07-21 14:24:00,
2013-07-21 10:40:00,76.5,72.0,29.96,SE,131,0.0,1.0,85,0.00,,,0.00,weatherlink.com 1.10,2013-07-21 14:40:00,
2013-07-21 10:55:00,77.0,71.0,29.95,SE,128,1.0,2.0,81,0.00,,,0.00,weatherlink.com 1.10,2013-07-21 14:55:00,
2013-07-21 11:10:00,77.0,71.0,29.96,SSE,149,3.0,3.0,82,0.00,,,0.00,weatherlink.com 1.10,2013-07-21 15:10:00,
2013-07-21 11:25:00,78.8,72.0,29.95,SSE,149,0.0,1.0,79,0.00,,,0.00,weatherlink.com 1.10,2013-07-21 15:25:00,
2013-07-21 11:40:00,78.9,71.0,29.95,ESE,115,0.0,2.0,77,0.00,,,0.00,weatherlink.com 1.10,2013-07-21 15:40:00,
2013-07-21 11:55:00,80.9,72.0,29.95,SE,124,0.0,0.0,75,0.00,,,0.00,weatherlink.com 1.10,2013-07-21 15:55:00,
2013-07-21 12:10:00,80.7,73.0,29.94,ESE,121,0.0,0.0,76,0.00,,,0.00,weatherlink.com 1.10,2013-07-21 16:10:00,
2013-07-21 12:25:00,82.6,73.0,29.94,SE,125,0.0,0.0,72,0.00,,,0.00,weatherlink.com 1.10,2013-07-21 16:25:00,
2013-07-21 12:40:00,81.2,73.0,29.93,ESE,119,0.0,0.0,75,0.00,,,0.00,weatherlink.com 1.10,2013-07-21 16:40:00,
2013-07-21 12:55:00,81.4,72.0,29.92,SE,139,0.0,0.0,74,0.00,,,0.00,weatherlink.com 1.10,2013-07-21 16:55:00,
2013-07-21 13:10:00,82.7,73.0,29.92,ESE,108,0.0,0.0,72,0.00,,,0.00,weatherlink.com 1.10,2013-07-21 17:10:00,
2013-07-21 13:25:00,83.6,71.0,29.91,SE,126,2.0,2.0,66,0.00,,,0.00,weatherlink.com 1.10,2013-07-21 17:25:00,
2013-07-21 13:40:00,84.2,73.0,29.91,East,91,1.0,2.0,69,0.00,,,0.00,weatherlink.com 1.10,2013-07-21 17:40:00,
2013-07-21 13:55:00,85.2,73.0,29.90,ESE,111,1.0,2.0,66,0.00,,,0.00,weatherlink.com 1.10,2013-07-21 17:55:00,
2013-07-21 14:10:00,86.2,73.0,29.89,North,359,0.0,2.0,64,0.00,,,0.00,weatherlink.com 1.10,2013-07-21 18:10:00,
2013-07-21 14:25:00,85.9,71.0,29.89,ESE,111,1.0,2.0,61,0.00,,,0.00,weatherlink.com 1.10,2013-07-21 18:25:00,
2013-07-21 14:40:00,86.6,72.0,29.89,ESE,118,0.0,3.0,63,0.00,,,0.00,weatherlink.com 1.10,2013-07-21 18:40:00,
2013-07-21 14:55:00,85.7,73.0,29.87,ENE,63,0.0,0.0,66,0.00,,,0.00,weatherlink.com 1.10,2013-07-21 18:55:00,
2013-07-21 15:10:00,85.1,72.0,29.87,ESE,118,1.0,3.0,66,0.00,,,0.00,weatherlink.com 1.10,2013-07-21 19:10:00,
2013-07-21 15:25:00,84.6,72.0,29.86,SW,222,0.0,0.0,66,0.00,,,0.00,weatherlink.com 1.10,2013-07-21 19:25:00,
2013-07-21 15:40:00,82.2,72.0,29.86,ESE,122,0.0,0.0,71,0.00,,,0.00,weatherlink.com 1.10,2013-07-21 19:40:00,
2013-07-21 15:55:00,82.1,74.0,29.86,ESE,105,0.0,3.0,75,0.00,,,0.00,weatherlink.com 1.10,2013-07-21 19:55:00,
2013-07-21 16:10:00,83.0,74.0,29.86,East,96,1.0,2.0,74,0.00,,,0.00,weatherlink.com 1.10,2013-07-21 20:10:00,
2013-07-21 16:25:00,83.9,74.0,29.86,East,99,0.0,2.0,73,0.00,,,0.00,weatherlink.com 1.10,2013-07-21 20:25:00,
2013-07-21 16:40:00,82.7,72.0,29.86,NNE,27,1.0,5.0,71,0.00,,,0.00,weatherlink.com 1.10,2013-07-21 20:40:00,
2013-07-21 16:55:00,80.8,71.0,29.86,North,352,2.0,4.0,71,0.00,,,0.00,weatherlink.com 1.10,2013-07-21 20:55:00,
2013-07-21 17:10:00,80.8,71.0,29.85,East,84,1.0,2.0,72,0.00,,,0.00,weatherlink.com 1.10,2013-07-21 21:10:00,
2013-07-21 17:25:00,80.4,70.0,29.85,ENE,62,1.0,2.0,71,0.00,,,0.00,weatherlink.com 1.10,2013-07-21 21:25:00,
2013-07-21 17:40:00,80.1,69.0,29.86,East,93,0.0,2.0,68,0.00,,,0.00,weatherlink.com 1.10,2013-07-21 21:40:00,
2013-07-21 17:55:00,78.7,69.0,29.86,SE,124,1.0,3.0,73,0.00,,,0.00,weatherlink.com 1.10,2013-07-21 21:55:00,
2013-07-21 18:10:00,77.5,70.0,29.87,SE,134,2.0,3.0,78,0.00,,,0.00,weatherlink.com 1.10,2013-07-21 22:10:00,
2013-07-21 18:25:00,75.5,69.0,29.88,ESE,112,0.0,3.0,81,0.00,,,0.00,weatherlink.com 1.10,2013-07-21 22:25:00,
2013-07-21 18:40:00,73.8,70.0,29.87,ESE,105,0.0,0.0,87,0.00,,,0.00,weatherlink.com 1.10,2013-07-21 22:40:00,
2013-07-21 18:56:00,72.5,70.0,29.87,ESE,106,0.0,0.0,92,0.01,,,0.01,weatherlink.com 1.10,2013-07-21 22:56:00,
2013-07-21 19:10:00,72.4,71.0,29.88,ESE,114,0.0,0.0,94,0.01,,,0.01,weatherlink.com 1.10,2013-07-21 23:10:00,
2013-07-21 19:25:00,72.2,70.0,29.88,ESE,115,0.0,0.0,94,0.01,,,0.01,weatherlink.com 1.10,2013-07-21 23:25:00,
2013-07-21 19:40:00,72.0,71.0,29.88,ESE,114,0.0,0.0,95,0.01,,,0.01,weatherlink.com 1.10,2013-07-21 23:40:00,
2013-07-21 19:55:00,72.0,71.0,29.88,ESE,115,0.0,0.0,95,0.01,,,0.02,weatherlink.com 1.10,2013-07-21 23:55:00,
2013-07-21 20:10:00,71.6,70.0,29.88,ESE,114,0.0,0.0,94,0.01,,,0.02,weatherlink.com 1.10,2013-07-22 00:10:00,
2013-07-21 20:25:00,71.0,70.0,29.88,ESE,114,0.0,0.0,95,0.01,,,0.02,weatherlink.com 1.10,2013-07-22 00:25:00,
2013-07-21 20:41:00,70.5,69.0,29.88,ESE,115,0.0,0.0,96,0.01,,,0.02,weatherlink.com 1.10,2013-07-22 00:41:00,
2013-07-21 20:56:00,70.1,69.0,29.89,ESE,114,0.0,0.0,96,0.00,,,0.02,weatherlink.com 1.10,2013-07-22 00:56:00,
2013-07-21 21:11:00,69.9,69.0,29.90,ESE,115,0.0,0.0,97,0.00,,,0.02,weatherlink.com 1.10,2013-07-22 01:11:00,
2013-07-21 21:26:00,70.0,69.0,29.91,ESE,115,0.0,0.0,97,0.00,,,0.02,weatherlink.com 1.10,2013-07-22 01:26:00,
2013-07-21 21:41:00,69.9,69.0,29.91,ESE,114,0.0,0.0,97,0.00,,,0.02,weatherlink.com 1.10,2013-07-22 01:41:00,
2013-07-21 21:56:00,69.8,69.0,29.91,ESE,114,0.0,0.0,97,0.00,,,0.02,weatherlink.com 1.10,2013-07-22 01:56:00,
2013-07-21 22:11:00,69.7,69.0,29.91,ESE,114,0.0,0.0,98,0.00,,,0.02,weatherlink.com 1.10,2013-07-22 02:11:00,
2013-07-21 22:26:00,69.6,69.0,29.92,ESE,115,0.0,0.0,97,0.00,,,0.02,weatherlink.com 1.10,2013-07-22 02:26:00,
2013-07-21 22:41:00,69.4,69.0,29.92,ESE,114,0.0,0.0,98,0.00,,,0.02,weatherlink.com 1.10,2013-07-22 02:41:00,
2013-07-21 22:56:00,69.3,69.0,29.93,ESE,115,0.0,0.0,98,0.00,,,0.02,weatherlink.com 1.10,2013-07-22 02:56:00,
2013-07-21 23:11:00,69.1,69.0,29.93,ESE,114,0.0,0.0,98,0.00,,,0.02,weatherlink.com 1.10,2013-07-22 03:11:00,
2013-07-21 23:26:00,69.0,69.0,29.93,ESE,114,0.0,0.0,98,0.00,,,0.02,weatherlink.com 1.10,2013-07-22 03:26:00,
2013-07-21 23:41:00,68.7,68.0,29.92,ESE,114,0.0,0.0,98,0.00,,,0.02,weatherlink.com 1.10,2013-07-22 03:41:00,
2013-07-21 23:56:00,68.5,68.0,29.93,ESE,114,0.0,0.0,98,0.00,,,0.02,weatherlink.com 1.10,2013-07-22 03:56:00,